Location: Zagreb
(45.8000°N, 16.0000°E)
Time: 14:28:25
(UTC+02:00)

Transit 2A - Pass Details

Date: 16 August 2022
Orbit: 601 x 956 km, 66.7° (Epoch: 25 September)

Event Time Altitude Azimuth Distance (km) Brightness Sun altitude
Rises 11:10:37 0° 202° (SSW) 3,151 9.4 50.4°
Reaches altitude 10° 11:13:05 10° 199° (SSW) 2,177 8.7 50.7°
Maximum altitude 11:17:54 62° 119° (ESE) 748 8.0 51.3°
Drops below altitude 10° 11:22:23 10° 39° (NE) 2,018 8.2 51.8°
Sets 11:24:36 0° 36° (NE) 2,900 8.9 52.1°
